Year,Month,Day,Hour,Minute,Value (Times are PST for temperature in C)
2013,05,01,00,00,5.40
2013,05,01,00,01,5.30
2013,05,01,00,02,5.30
2013,05,01,00,03,5.30
2013,05,01,00,04,5.30
2013,05,01,00,05,5.30
2013,05,01,00,06,5.30
2013,05,01,00,07,5.30
2013,05,01,00,08,5.30
2013,05,01,00,09,5.30
2013,05,01,00,10,5.30
2013,05,01,00,11,5.30
2013,05,01,00,12,5.30
2013,05,01,00,13,5.30
2013,05,01,00,14,5.30
2013,05,01,00,15,5.30
2013,05,01,00,16,5.30
2013,05,01,00,17,5.40
2013,05,01,00,18,5.40
2013,05,01,00,19,5.50
2013,05,01,00,20,5.50
2013,05,01,00,21,5.50
2013,05,01,00,22,5.50
2013,05,01,00,23,5.40
2013,05,01,00,24,5.30
2013,05,01,00,25,5.30
2013,05,01,00,26,5.20
2013,05,01,00,27,5.10
2013,05,01,00,28,5.10
2013,05,01,00,29,5.10
2013,05,01,00,30,5.00
2013,05,01,00,31,4.90
2013,05,01,00,32,4.90
2013,05,01,00,33,4.90
2013,05,01,00,34,4.80
2013,05,01,00,35,4.80
2013,05,01,00,36,4.80
2013,05,01,00,37,4.70
2013,05,01,00,38,4.70
2013,05,01,00,39,4.70
2013,05,01,00,40,4.70
2013,05,01,00,41,4.60
2013,05,01,00,42,4.60
2013,05,01,00,43,4.60
2013,05,01,00,44,4.60
2013,05,01,00,45,4.60
2013,05,01,00,46,4.60
2013,05,01,00,47,4.60
2013,05,01,00,48,4.60
2013,05,01,00,49,4.50
2013,05,01,00,50,4.50
2013,05,01,00,51,4.50
2013,05,01,00,52,4.50
2013,05,01,00,53,4.50
2013,05,01,00,54,4.40
2013,05,01,00,55,4.40
2013,05,01,00,56,4.40
2013,05,01,00,57,4.40
2013,05,01,00,58,4.40
2013,05,01,00,59,4.30
2013,05,01,01,00,4.30
2013,05,01,01,01,4.30
2013,05,01,01,02,4.20
2013,05,01,01,03,4.20
2013,05,01,01,04,4.20
2013,05,01,01,05,4.20
2013,05,01,01,06,4.20
2013,05,01,01,07,4.20
2013,05,01,01,08,4.10
2013,05,01,01,09,4.10
2013,05,01,01,10,4.10
2013,05,01,01,11,4.10
2013,05,01,01,12,4.10
2013,05,01,01,13,4.10
2013,05,01,01,14,4.10
2013,05,01,01,15,4.10
2013,05,01,01,16,4.00
2013,05,01,01,17,4.00
2013,05,01,01,18,4.00
2013,05,01,01,19,4.00
2013,05,01,01,20,3.90
2013,05,01,01,21,3.90
2013,05,01,01,22,3.90
2013,05,01,01,23,3.80
2013,05,01,01,24,3.80
2013,05,01,01,25,3.80
2013,05,01,01,26,3.70
2013,05,01,01,27,3.70
2013,05,01,01,28,3.60
2013,05,01,01,29,3.60
2013,05,01,01,30,3.50
2013,05,01,01,31,3.50
2013,05,01,01,32,3.40
2013,05,01,01,33,3.40
2013,05,01,01,34,3.30
2013,05,01,01,35,3.30
2013,05,01,01,36,3.30
2013,05,01,01,37,3.30
2013,05,01,01,38,3.20
2013,05,01,01,39,3.20
2013,05,01,01,40,3.20
2013,05,01,01,41,3.10
2013,05,01,01,42,3.10
2013,05,01,01,43,3.10
2013,05,01,01,44,3.10
2013,05,01,01,45,3.00
2013,05,01,01,46,2.90
2013,05,01,01,47,2.90
2013,05,01,01,48,2.90
2013,05,01,01,49,2.90
2013,05,01,01,50,2.90
2013,05,01,01,51,2.90
2013,05,01,01,52,2.80
2013,05,01,01,53,2.80
2013,05,01,01,54,2.80
2013,05,01,01,55,2.80
2013,05,01,01,56,2.80
2013,05,01,01,57,2.80
2013,05,01,01,58,2.80
2013,05,01,01,59,2.80
2013,05,01,02,00,2.80
2013,05,01,02,01,2.70
2013,05,01,02,02,2.70
2013,05,01,02,03,2.70
2013,05,01,02,04,2.70
2013,05,01,02,05,2.70
2013,05,01,02,06,2.70
2013,05,01,02,07,2.70
2013,05,01,02,08,2.70
2013,05,01,02,09,2.70
2013,05,01,02,10,2.70
2013,05,01,02,11,2.70
2013,05,01,02,12,2.70
2013,05,01,02,13,2.70
2013,05,01,02,14,2.70
2013,05,01,02,15,2.70
2013,05,01,02,16,2.70
2013,05,01,02,17,2.70
2013,05,01,02,18,2.70
2013,05,01,02,19,2.70
2013,05,01,02,20,2.60
2013,05,01,02,21,2.60
2013,05,01,02,22,2.60
2013,05,01,02,23,2.60
2013,05,01,02,24,2.60
2013,05,01,02,25,2.60
2013,05,01,02,26,2.60
2013,05,01,02,27,2.60
2013,05,01,02,28,2.60
2013,05,01,02,29,2.50
2013,05,01,02,30,2.50
2013,05,01,02,31,2.40
2013,05,01,02,32,2.40
2013,05,01,02,33,2.40
2013,05,01,02,34,2.30
2013,05,01,02,35,2.30
2013,05,01,02,36,2.20
2013,05,01,02,37,2.20
2013,05,01,02,38,2.20
2013,05,01,02,39,2.20
2013,05,01,02,40,2.20
2013,05,01,02,41,2.20
2013,05,01,02,42,2.20
2013,05,01,02,43,2.20
2013,05,01,02,44,2.20
2013,05,01,02,45,2.10
2013,05,01,02,46,2.10
2013,05,01,02,47,2.10
2013,05,01,02,48,2.10
2013,05,01,02,49,2.10
2013,05,01,02,50,2.10
2013,05,01,02,51,2.10
2013,05,01,02,52,2.10
2013,05,01,02,53,2.10
2013,05,01,02,54,2.00
2013,05,01,02,55,2.00
2013,05,01,02,56,2.00
2013,05,01,02,57,2.00
2013,05,01,02,58,2.00
2013,05,01,02,59,2.00
2013,05,01,03,00,2.00
2013,05,01,03,01,2.00
2013,05,01,03,02,2.00
2013,05,01,03,03,2.00
2013,05,01,03,04,2.00
2013,05,01,03,05,2.00
2013,05,01,03,06,2.00
2013,05,01,03,07,1.90
2013,05,01,03,08,1.90
2013,05,01,03,09,1.90
2013,05,01,03,10,1.90
2013,05,01,03,11,1.90
2013,05,01,03,12,1.90
2013,05,01,03,13,1.90
2013,05,01,03,14,1.90
2013,05,01,03,15,1.80
2013,05,01,03,16,1.80
2013,05,01,03,17,1.80
2013,05,01,03,18,1.80
2013,05,01,03,19,1.80
2013,05,01,03,20,1.80
2013,05,01,03,21,1.80
2013,05,01,03,22,1.80
2013,05,01,03,23,1.80
2013,05,01,03,24,1.80
2013,05,01,03,25,1.80
2013,05,01,03,26,1.80
2013,05,01,03,27,1.80
2013,05,01,03,28,1.80
2013,05,01,03,29,1.80
2013,05,01,03,30,1.80
2013,05,01,03,31,1.80
2013,05,01,03,32,1.70
2013,05,01,03,33,1.70
2013,05,01,03,34,1.70
2013,05,01,03,35,1.70
2013,05,01,03,36,1.70
2013,05,01,03,37,1.60
2013,05,01,03,38,1.60
2013,05,01,03,39,1.60
2013,05,01,03,40,1.60
2013,05,01,03,41,1.60
2013,05,01,03,42,1.60
2013,05,01,03,43,1.60
2013,05,01,03,44,1.60
2013,05,01,03,45,1.60
2013,05,01,03,46,1.60
2013,05,01,03,47,1.60
2013,05,01,03,48,1.60
2013,05,01,03,49,1.60
2013,05,01,03,50,1.60
2013,05,01,03,51,1.60
2013,05,01,03,52,1.60
2013,05,01,03,53,1.60
2013,05,01,03,54,1.60
2013,05,01,03,55,1.50
2013,05,01,03,56,1.50
2013,05,01,03,57,1.50
2013,05,01,03,58,1.50
2013,05,01,03,59,1.50
2013,05,01,04,00,1.50
2013,05,01,04,01,1.40
2013,05,01,04,02,1.40
2013,05,01,04,03,1.40
2013,05,01,04,04,1.40
2013,05,01,04,05,1.40
2013,05,01,04,06,1.40
2013,05,01,04,07,1.40
2013,05,01,04,08,1.40
2013,05,01,04,09,1.40
2013,05,01,04,10,1.40
2013,05,01,04,11,1.40
2013,05,01,04,12,1.40
2013,05,01,04,13,1.40
2013,05,01,04,14,1.40
2013,05,01,04,15,1.30
2013,05,01,04,16,1.30
2013,05,01,04,17,1.30
2013,05,01,04,18,1.30
2013,05,01,04,19,1.30
2013,05,01,04,20,1.20
2013,05,01,04,21,1.20
2013,05,01,04,22,1.20
2013,05,01,04,23,1.20
2013,05,01,04,24,1.20
2013,05,01,04,25,1.10
2013,05,01,04,26,1.10
2013,05,01,04,27,1.10
2013,05,01,04,28,1.10
2013,05,01,04,29,1.00
2013,05,01,04,30,1.00
2013,05,01,04,31,1.00
2013,05,01,04,32,0.90
2013,05,01,04,33,0.90
2013,05,01,04,34,0.90
2013,05,01,04,35,0.80
2013,05,01,04,36,0.80
2013,05,01,04,37,0.80
2013,05,01,04,38,0.80
2013,05,01,04,39,0.80
2013,05,01,04,40,0.80
2013,05,01,04,41,0.80
2013,05,01,04,42,0.80
2013,05,01,04,43,0.80
2013,05,01,04,44,0.80
2013,05,01,04,45,0.90
2013,05,01,04,46,0.90
2013,05,01,04,47,0.90
2013,05,01,04,48,0.90
2013,05,01,04,49,0.90
2013,05,01,04,50,0.90
2013,05,01,04,51,0.90
2013,05,01,04,52,0.90
2013,05,01,04,53,0.90
2013,05,01,04,54,0.90
2013,05,01,04,55,0.80
2013,05,01,04,56,0.80
2013,05,01,04,57,0.80
2013,05,01,04,58,0.80
2013,05,01,04,59,0.80
2013,05,01,05,00,0.80
2013,05,01,05,01,0.80
2013,05,01,05,02,0.80
2013,05,01,05,03,0.80
2013,05,01,05,04,0.80
2013,05,01,05,05,0.80
2013,05,01,05,06,0.80
2013,05,01,05,07,0.80
2013,05,01,05,08,0.80
2013,05,01,05,09,0.80
2013,05,01,05,10,0.80
2013,05,01,05,11,0.80
2013,05,01,05,12,0.80
2013,05,01,05,13,0.80
2013,05,01,05,14,0.80
2013,05,01,05,15,0.80
2013,05,01,05,16,0.80
2013,05,01,05,17,0.80
2013,05,01,05,18,0.80
2013,05,01,05,19,0.80
2013,05,01,05,20,0.80
2013,05,01,05,21,0.80
2013,05,01,05,22,0.80
2013,05,01,05,23,0.80
2013,05,01,05,24,0.80
2013,05,01,05,25,0.80
2013,05,01,05,26,0.80
2013,05,01,05,27,0.80
2013,05,01,05,28,0.80
2013,05,01,05,29,0.80
2013,05,01,05,30,0.80
2013,05,01,05,31,0.80
2013,05,01,05,32,0.80
2013,05,01,05,33,0.80
2013,05,01,05,34,0.80
2013,05,01,05,35,0.80
2013,05,01,05,36,0.80
2013,05,01,05,37,0.80
2013,05,01,05,38,0.80
2013,05,01,05,39,0.80
2013,05,01,05,40,0.80
2013,05,01,05,41,0.80
2013,05,01,05,42,0.80
2013,05,01,05,43,0.80
2013,05,01,05,44,0.80
2013,05,01,05,45,0.80
2013,05,01,05,46,0.80
2013,05,01,05,47,0.70
2013,05,01,05,48,0.70
2013,05,01,05,49,0.70
2013,05,01,05,50,0.70
2013,05,01,05,51,0.70
2013,05,01,05,52,0.70
2013,05,01,05,53,0.70
2013,05,01,05,54,0.60
2013,05,01,05,55,0.60
2013,05,01,05,56,0.60
2013,05,01,05,57,0.60
2013,05,01,05,58,0.50
2013,05,01,05,59,0.50
2013,05,01,06,00,0.50
2013,05,01,06,01,0.50
2013,05,01,06,02,0.50
2013,05,01,06,03,0.50
2013,05,01,06,04,0.40
2013,05,01,06,05,0.40
2013,05,01,06,06,0.40
2013,05,01,06,07,0.40
2013,05,01,06,08,0.40
2013,05,01,06,09,0.40
2013,05,01,06,10,0.40
2013,05,01,06,11,0.40
2013,05,01,06,12,0.40
2013,05,01,06,13,0.40
2013,05,01,06,14,0.40
2013,05,01,06,15,0.40
2013,05,01,06,16,0.40
2013,05,01,06,17,0.40
2013,05,01,06,18,0.40
2013,05,01,06,19,0.40
2013,05,01,06,20,0.40
2013,05,01,06,21,0.40
2013,05,01,06,22,0.40
2013,05,01,06,23,0.40
2013,05,01,06,24,0.40
2013,05,01,06,25,0.50
2013,05,01,06,26,0.50
2013,05,01,06,27,0.50
2013,05,01,06,28,0.50
2013,05,01,06,29,0.60
2013,05,01,06,30,0.60
2013,05,01,06,31,0.60
2013,05,01,06,32,0.60
2013,05,01,06,33,0.70
2013,05,01,06,34,0.70
2013,05,01,06,35,0.80
2013,05,01,06,36,0.80
2013,05,01,06,37,0.80
2013,05,01,06,38,0.80
2013,05,01,06,39,0.80
2013,05,01,06,40,0.90
2013,05,01,06,41,0.90
2013,05,01,06,42,1.00
2013,05,01,06,43,1.00
2013,05,01,06,44,1.00
2013,05,01,06,45,1.10
2013,05,01,06,46,1.10
2013,05,01,06,47,1.10
2013,05,01,06,48,1.20
2013,05,01,06,49,1.20
2013,05,01,06,50,1.30
2013,05,01,06,51,1.30
2013,05,01,06,52,1.40
2013,05,01,06,53,1.50
2013,05,01,06,54,1.50
2013,05,01,06,55,1.60
2013,05,01,06,56,1.70
2013,05,01,06,57,1.80
2013,05,01,06,58,1.80
2013,05,01,06,59,1.80
2013,05,01,07,00,1.90
2013,05,01,07,01,2.00
2013,05,01,07,02,2.00
2013,05,01,07,03,2.10
2013,05,01,07,04,2.20
2013,05,01,07,05,2.40
2013,05,01,07,06,2.50
2013,05,01,07,07,2.60
2013,05,01,07,08,2.70
2013,05,01,07,09,2.70
2013,05,01,07,10,2.80
2013,05,01,07,11,2.90
2013,05,01,07,12,2.90
2013,05,01,07,13,3.10
2013,05,01,07,14,3.10
2013,05,01,07,15,3.20
2013,05,01,07,16,3.30
2013,05,01,07,17,3.30
2013,05,01,07,18,3.40
2013,05,01,07,19,3.50
2013,05,01,07,20,3.50
2013,05,01,07,21,3.60
2013,05,01,07,22,3.80
2013,05,01,07,23,3.90
2013,05,01,07,24,4.00
2013,05,01,07,25,4.10
2013,05,01,07,26,4.20
2013,05,01,07,27,4.40
2013,05,01,07,28,4.40
2013,05,01,07,29,4.50
2013,05,01,07,30,4.60
2013,05,01,07,31,4.60
2013,05,01,07,32,4.70
2013,05,01,07,33,4.70
2013,05,01,07,34,4.80
2013,05,01,07,35,4.80
2013,05,01,07,36,4.90
2013,05,01,07,37,4.90
2013,05,01,07,38,4.90
2013,05,01,07,39,5.00
2013,05,01,07,40,5.10
2013,05,01,07,41,5.10
2013,05,01,07,42,5.10
2013,05,01,07,43,5.10
2013,05,01,07,44,5.20
2013,05,01,07,45,5.20
2013,05,01,07,46,5.40
2013,05,01,07,47,5.50
2013,05,01,07,48,5.60
2013,05,01,07,49,5.80
2013,05,01,07,50,5.90
2013,05,01,07,51,6.00
2013,05,01,07,52,6.10
2013,05,01,07,53,6.20
2013,05,01,07,54,6.30
2013,05,01,07,55,6.40
2013,05,01,07,56,6.50
2013,05,01,07,57,6.60
2013,05,01,07,58,6.70
2013,05,01,07,59,6.70
2013,05,01,08,00,6.80
2013,05,01,08,01,6.90
2013,05,01,08,02,7.00
2013,05,01,08,03,7.10
2013,05,01,08,04,7.30
2013,05,01,08,05,7.30
2013,05,01,08,06,7.50
2013,05,01,08,07,7.60
2013,05,01,08,08,7.70
2013,05,01,08,09,7.80
2013,05,01,08,10,8.00
2013,05,01,08,11,8.10
2013,05,01,08,12,8.20
2013,05,01,08,13,8.20
2013,05,01,08,14,8.30
2013,05,01,08,15,8.40
2013,05,01,08,16,8.50
2013,05,01,08,17,8.50
2013,05,01,08,18,8.60
2013,05,01,08,19,8.70
2013,05,01,08,20,8.70
2013,05,01,08,21,8.80
2013,05,01,08,22,8.90
2013,05,01,08,23,9.00
2013,05,01,08,24,9.00
2013,05,01,08,25,9.00
2013,05,01,08,26,9.10
2013,05,01,08,27,9.10
2013,05,01,08,28,9.10
2013,05,01,08,29,9.10
2013,05,01,08,30,9.10
2013,05,01,08,31,9.10
2013,05,01,08,32,9.20
2013,05,01,08,33,9.20
2013,05,01,08,34,9.40
2013,05,01,08,35,9.40
2013,05,01,08,36,9.50
2013,05,01,08,37,9.50
2013,05,01,08,38,9.50
2013,05,01,08,39,9.50
2013,05,01,08,40,9.40
2013,05,01,08,41,9.50
2013,05,01,08,42,9.50
2013,05,01,08,43,9.50
2013,05,01,08,44,9.60
2013,05,01,08,45,9.60
2013,05,01,08,46,9.60
2013,05,01,08,47,9.50
2013,05,01,08,48,9.50
2013,05,01,08,49,9.50
2013,05,01,08,50,9.50
2013,05,01,08,51,9.40
2013,05,01,08,52,9.40
2013,05,01,08,53,9.30
2013,05,01,08,54,9.30
2013,05,01,08,55,9.40
2013,05,01,08,56,9.40
2013,05,01,08,57,9.40
2013,05,01,08,58,9.40
2013,05,01,08,59,9.40
2013,05,01,09,00,9.50
2013,05,01,09,01,9.50
2013,05,01,09,02,9.60
2013,05,01,09,03,9.70
2013,05,01,09,04,9.70
2013,05,01,09,05,9.70
2013,05,01,09,06,9.70
2013,05,01,09,07,9.70
2013,05,01,09,08,9.70
2013,05,01,09,09,9.70
2013,05,01,09,10,9.80
2013,05,01,09,11,9.90
2013,05,01,09,12,9.90
2013,05,01,09,13,9.90
2013,05,01,09,14,10.10
2013,05,01,09,15,10.10
2013,05,01,09,16,10.10
2013,05,01,09,17,10.20
2013,05,01,09,18,10.30
2013,05,01,09,19,10.40
2013,05,01,09,20,10.40
2013,05,01,09,21,10.40
2013,05,01,09,22,10.50
2013,05,01,09,23,10.60
2013,05,01,09,24,10.60
2013,05,01,09,25,10.60
2013,05,01,09,26,10.50
2013,05,01,09,27,10.40
2013,05,01,09,28,10.40
2013,05,01,09,29,10.30
2013,05,01,09,30,10.40
2013,05,01,09,31,10.40
2013,05,01,09,32,10.40
2013,05,01,09,33,10.50
2013,05,01,09,34,10.60
2013,05,01,09,35,10.60
2013,05,01,09,36,10.60
2013,05,01,09,37,10.70
2013,05,01,09,38,10.80
2013,05,01,09,39,10.80
2013,05,01,09,40,10.90
2013,05,01,09,41,10.90
2013,05,01,09,42,10.90
2013,05,01,09,43,10.90
2013,05,01,09,44,10.80
2013,05,01,09,45,10.80
2013,05,01,09,46,10.70
2013,05,01,09,47,10.70
2013,05,01,09,48,10.70
2013,05,01,09,49,10.70
2013,05,01,09,50,10.80
2013,05,01,09,51,10.80
2013,05,01,09,52,10.80
2013,05,01,09,53,10.90
2013,05,01,09,54,10.90
2013,05,01,09,55,10.90
2013,05,01,09,56,10.90
2013,05,01,09,57,10.90
2013,05,01,09,58,10.90
2013,05,01,09,59,10.90
2013,05,01,10,00,11.00
2013,05,01,10,01,11.00
2013,05,01,10,02,10.90
2013,05,01,10,03,10.90
2013,05,01,10,04,10.90
2013,05,01,10,05,10.90
2013,05,01,10,06,10.90
2013,05,01,10,07,10.80
2013,05,01,10,08,10.70
2013,05,01,10,09,10.70
2013,05,01,10,10,10.70
2013,05,01,10,11,10.60
2013,05,01,10,12,10.60
2013,05,01,10,13,10.60
2013,05,01,10,14,10.60
2013,05,01,10,15,10.60
2013,05,01,10,16,10.70
2013,05,01,10,17,10.80
2013,05,01,10,18,10.90
2013,05,01,10,19,10.80
2013,05,01,10,20,10.60
2013,05,01,10,21,10.60
2013,05,01,10,22,10.60
2013,05,01,10,23,10.50
2013,05,01,10,24,10.40
2013,05,01,10,25,10.30
2013,05,01,10,26,10.30
2013,05,01,10,27,10.30
2013,05,01,10,28,10.40
2013,05,01,10,29,10.40
2013,05,01,10,30,10.40
2013,05,01,10,31,10.50
2013,05,01,10,32,10.60
2013,05,01,10,33,10.70
2013,05,01,10,34,10.80
2013,05,01,10,35,10.80
2013,05,01,10,36,10.90
2013,05,01,10,37,10.80
2013,05,01,10,38,10.80
2013,05,01,10,39,10.90
2013,05,01,10,40,10.90
2013,05,01,10,41,10.90
2013,05,01,10,42,11.00
2013,05,01,10,43,11.10
2013,05,01,10,44,11.10
2013,05,01,10,45,11.20
2013,05,01,10,46,11.20
2013,05,01,10,47,11.20
2013,05,01,10,48,11.20
2013,05,01,10,49,11.30
2013,05,01,10,50,11.30
2013,05,01,10,51,11.20
2013,05,01,10,52,11.20
2013,05,01,10,53,11.10
2013,05,01,10,54,11.10
2013,05,01,10,55,11.10
2013,05,01,10,56,11.10
2013,05,01,10,57,11.10
2013,05,01,10,58,11.10
2013,05,01,10,59,11.10
2013,05,01,11,00,11.10
2013,05,01,11,01,11.10
2013,05,01,11,02,11.10
2013,05,01,11,03,10.90
2013,05,01,11,04,10.90
2013,05,01,11,05,10.80
2013,05,01,11,06,10.70
2013,05,01,11,07,10.70
2013,05,01,11,08,10.70
2013,05,01,11,09,10.80
2013,05,01,11,10,10.90
2013,05,01,11,11,11.00
2013,05,01,11,12,11.10
2013,05,01,11,13,11.30
2013,05,01,11,14,11.40
2013,05,01,11,15,11.60
2013,05,01,11,16,11.60
2013,05,01,11,17,11.70
2013,05,01,11,18,11.80
2013,05,01,11,19,11.80
2013,05,01,11,20,11.80
2013,05,01,11,21,11.60
2013,05,01,11,22,11.40
2013,05,01,11,23,11.40
2013,05,01,11,24,11.40
2013,05,01,11,25,11.40
2013,05,01,11,26,11.50
2013,05,01,11,27,11.50
2013,05,01,11,28,11.50
2013,05,01,11,29,11.60
2013,05,01,11,30,11.60
2013,05,01,11,31,11.70
2013,05,01,11,32,11.80
2013,05,01,11,33,11.80
2013,05,01,11,34,11.90
2013,05,01,11,35,11.90
2013,05,01,11,36,11.90
2013,05,01,11,37,11.90
2013,05,01,11,38,11.90
2013,05,01,11,39,12.00
2013,05,01,11,40,12.00
2013,05,01,11,41,12.00
2013,05,01,11,42,12.10
2013,05,01,11,43,12.10
2013,05,01,11,44,12.00
2013,05,01,11,45,11.80
2013,05,01,11,46,11.70
2013,05,01,11,47,11.70
2013,05,01,11,48,11.70
2013,05,01,11,49,11.80
2013,05,01,11,50,11.80
2013,05,01,11,51,11.90
2013,05,01,11,52,12.10
2013,05,01,11,53,12.10
2013,05,01,11,54,12.20
2013,05,01,11,55,12.20
2013,05,01,11,56,12.10
2013,05,01,11,57,12.10
2013,05,01,11,58,12.20
2013,05,01,11,59,12.20
2013,05,01,12,00,12.20
2013,05,01,12,01,12.20
2013,05,01,12,02,12.10
2013,05,01,12,03,12.10
2013,05,01,12,04,12.00
2013,05,01,12,05,11.90
2013,05,01,12,06,11.90
2013,05,01,12,07,11.90
2013,05,01,12,08,11.90
2013,05,01,12,09,11.90
2013,05,01,12,10,11.90
2013,05,01,12,11,11.90
2013,05,01,12,12,11.90
2013,05,01,12,13,11.90
2013,05,01,12,14,11.90
2013,05,01,12,15,12.00
2013,05,01,12,16,12.00
2013,05,01,12,17,12.00
2013,05,01,12,18,12.00
2013,05,01,12,19,12.10
2013,05,01,12,20,12.10
2013,05,01,12,21,12.10
2013,05,01,12,22,12.10
2013,05,01,12,23,12.10
2013,05,01,12,24,12.20
2013,05,01,12,25,12.20
2013,05,01,12,26,12.20
2013,05,01,12,27,12.10
2013,05,01,12,28,12.10
2013,05,01,12,29,12.00
2013,05,01,12,30,12.10
2013,05,01,12,31,12.10
2013,05,01,12,32,12.10
2013,05,01,12,33,12.20
2013,05,01,12,34,12.30
2013,05,01,12,35,12.30
2013,05,01,12,36,12.30
2013,05,01,12,37,12.30
2013,05,01,12,38,12.30
2013,05,01,12,39,12.30
2013,05,01,12,40,12.30
2013,05,01,12,41,12.20
2013,05,01,12,42,12.10
2013,05,01,12,43,12.10
2013,05,01,12,44,12.10
2013,05,01,12,45,12.10
2013,05,01,12,46,12.20
2013,05,01,12,47,12.20
2013,05,01,12,48,12.40
2013,05,01,12,49,12.50
2013,05,01,12,50,12.60
2013,05,01,12,51,12.80
2013,05,01,12,52,12.90
2013,05,01,12,53,12.90
2013,05,01,12,54,12.90
2013,05,01,12,55,12.90
2013,05,01,12,56,12.90
2013,05,01,12,57,12.90
2013,05,01,12,58,12.90
2013,05,01,12,59,13.00
2013,05,01,13,00,13.10
2013,05,01,13,01,13.20
2013,05,01,13,02,13.20
2013,05,01,13,03,13.20
2013,05,01,13,04,13.30
2013,05,01,13,05,13.30
2013,05,01,13,06,13.30
2013,05,01,13,07,13.30
2013,05,01,13,08,13.10
2013,05,01,13,09,12.90
2013,05,01,13,10,12.70
2013,05,01,13,11,12.70
2013,05,01,13,12,12.70
2013,05,01,13,13,12.60
2013,05,01,13,14,12.50
2013,05,01,13,15,12.40
2013,05,01,13,16,12.40
2013,05,01,13,17,12.30
2013,05,01,13,18,12.30
2013,05,01,13,19,12.20
2013,05,01,13,20,12.10
2013,05,01,13,21,12.10
2013,05,01,13,22,12.10
2013,05,01,13,23,12.20
2013,05,01,13,24,12.20
2013,05,01,13,25,12.30
2013,05,01,13,26,12.30
2013,05,01,13,27,12.30
2013,05,01,13,28,12.30
2013,05,01,13,29,12.30
2013,05,01,13,30,12.30
2013,05,01,13,31,12.30
2013,05,01,13,32,12.30
2013,05,01,13,33,12.50
2013,05,01,13,34,12.60
2013,05,01,13,35,12.60
2013,05,01,13,36,12.70
2013,05,01,13,37,12.80
2013,05,01,13,38,12.90
2013,05,01,13,39,13.00
2013,05,01,13,40,13.00
2013,05,01,13,41,13.00
2013,05,01,13,42,13.10
2013,05,01,13,43,13.10
2013,05,01,13,44,13.20
2013,05,01,13,45,13.10
2013,05,01,13,46,13.20
2013,05,01,13,47,13.20
2013,05,01,13,48,13.20
2013,05,01,13,49,13.20
2013,05,01,13,50,13.20
2013,05,01,13,51,13.10
2013,05,01,13,52,13.10
2013,05,01,13,53,13.20
2013,05,01,13,54,13.20
2013,05,01,13,55,13.40
2013,05,01,13,56,13.50
2013,05,01,13,57,13.50
2013,05,01,13,58,13.50
2013,05,01,13,59,13.50
2013,05,01,14,00,13.40
2013,05,01,14,01,13.40
2013,05,01,14,02,13.50
2013,05,01,14,03,13.50
2013,05,01,14,04,13.60
2013,05,01,14,05,13.60
2013,05,01,14,06,13.70
2013,05,01,14,07,13.70
2013,05,01,14,08,13.70
2013,05,01,14,09,13.60
2013,05,01,14,10,13.70
2013,05,01,14,11,13.70
2013,05,01,14,12,13.70
2013,05,01,14,13,13.80
2013,05,01,14,14,13.90
2013,05,01,14,15,13.90
2013,05,01,14,16,13.90
2013,05,01,14,17,13.90
2013,05,01,14,18,13.90
2013,05,01,14,19,14.00
2013,05,01,14,20,14.00
2013,05,01,14,21,14.10
2013,05,01,14,22,14.20
2013,05,01,14,23,14.20
2013,05,01,14,24,14.20
2013,05,01,14,25,14.20
2013,05,01,14,26,14.20
2013,05,01,14,27,14.10
2013,05,01,14,28,14.00
2013,05,01,14,29,13.90
2013,05,01,14,30,13.90
2013,05,01,14,31,13.90
2013,05,01,14,32,13.90
2013,05,01,14,33,13.90
2013,05,01,14,34,14.00
2013,05,01,14,35,14.10
2013,05,01,14,36,14.10
2013,05,01,14,37,14.00
2013,05,01,14,38,14.00
2013,05,01,14,39,13.90
2013,05,01,14,40,14.00
2013,05,01,14,41,14.00
2013,05,01,14,42,14.00
2013,05,01,14,43,14.00
2013,05,01,14,44,14.00
2013,05,01,14,45,14.00
2013,05,01,14,46,14.00
2013,05,01,14,47,13.90
2013,05,01,14,48,13.80
2013,05,01,14,49,13.90
2013,05,01,14,50,13.90
2013,05,01,14,51,13.90
2013,05,01,14,52,13.90
2013,05,01,14,53,14.00
2013,05,01,14,54,14.00
2013,05,01,14,55,14.00
2013,05,01,14,56,14.00
2013,05,01,14,57,14.00
2013,05,01,14,58,13.90
2013,05,01,14,59,13.90
2013,05,01,15,00,13.90
2013,05,01,15,01,13.90
2013,05,01,15,02,14.00
2013,05,01,15,03,14.10
2013,05,01,15,04,14.10
2013,05,01,15,05,14.20
2013,05,01,15,06,14.20
2013,05,01,15,07,14.20
2013,05,01,15,08,14.20
2013,05,01,15,09,14.20
2013,05,01,15,10,14.20
2013,05,01,15,11,14.20
2013,05,01,15,12,14.20
2013,05,01,15,13,14.20
2013,05,01,15,14,14.20
2013,05,01,15,15,14.20
2013,05,01,15,16,14.20
2013,05,01,15,17,14.20
2013,05,01,15,18,14.20
2013,05,01,15,19,14.20
2013,05,01,15,20,14.20
2013,05,01,15,21,14.20
2013,05,01,15,22,14.20
2013,05,01,15,23,14.30
2013,05,01,15,24,14.30
2013,05,01,15,25,14.10
2013,05,01,15,26,13.80
2013,05,01,15,27,13.70
2013,05,01,15,28,13.70
2013,05,01,15,29,13.70
2013,05,01,15,30,13.70
2013,05,01,15,31,13.70
2013,05,01,15,32,13.80
2013,05,01,15,33,13.80
2013,05,01,15,34,13.80
2013,05,01,15,35,13.80
2013,05,01,15,36,13.70
2013,05,01,15,37,13.70
2013,05,01,15,38,13.70
2013,05,01,15,39,13.70
2013,05,01,15,40,13.70
2013,05,01,15,41,13.70
2013,05,01,15,42,13.80
2013,05,01,15,43,13.80
2013,05,01,15,44,13.90
2013,05,01,15,45,13.90
2013,05,01,15,46,13.90
2013,05,01,15,47,13.90
2013,05,01,15,48,13.80
2013,05,01,15,49,13.90
2013,05,01,15,50,14.00
2013,05,01,15,51,14.00
2013,05,01,15,52,14.00
2013,05,01,15,53,13.90
2013,05,01,15,54,14.00
2013,05,01,15,55,14.10
2013,05,01,15,56,14.20
2013,05,01,15,57,14.30
2013,05,01,15,58,14.40
2013,05,01,15,59,14.50
2013,05,01,16,00,14.50
2013,05,01,16,01,14.40
2013,05,01,16,02,14.30
2013,05,01,16,03,14.20
2013,05,01,16,04,14.20
2013,05,01,16,05,14.20
2013,05,01,16,06,14.20
2013,05,01,16,07,14.20
2013,05,01,16,08,14.30
2013,05,01,16,09,14.30
2013,05,01,16,10,14.40
2013,05,01,16,11,14.50
2013,05,01,16,12,14.60
2013,05,01,16,13,14.60
2013,05,01,16,14,14.70
2013,05,01,16,15,14.80
2013,05,01,16,16,14.80
2013,05,01,16,17,14.80
2013,05,01,16,18,14.80
2013,05,01,16,19,14.90
2013,05,01,16,20,14.90
2013,05,01,16,21,15.00
2013,05,01,16,22,15.00
2013,05,01,16,23,15.00
2013,05,01,16,24,15.00
2013,05,01,16,25,15.00
2013,05,01,16,26,15.00
2013,05,01,16,27,14.90
2013,05,01,16,28,14.70
2013,05,01,16,29,14.50
2013,05,01,16,30,14.30
2013,05,01,16,31,14.20
2013,05,01,16,32,14.20
2013,05,01,16,33,14.20
2013,05,01,16,34,14.20
2013,05,01,16,35,14.20
2013,05,01,16,36,14.20
2013,05,01,16,37,14.10
2013,05,01,16,38,14.10
2013,05,01,16,39,14.10
2013,05,01,16,40,14.10
2013,05,01,16,41,14.10
2013,05,01,16,42,14.10
2013,05,01,16,43,14.10
2013,05,01,16,44,14.00
2013,05,01,16,45,14.00
2013,05,01,16,46,13.90
2013,05,01,16,47,13.80
2013,05,01,16,48,13.70
2013,05,01,16,49,13.70
2013,05,01,16,50,13.70
2013,05,01,16,51,13.70
2013,05,01,16,52,13.80
2013,05,01,16,53,13.70
2013,05,01,16,54,13.70
2013,05,01,16,55,13.80
2013,05,01,16,56,13.90
2013,05,01,16,57,13.90
2013,05,01,16,58,13.90
2013,05,01,16,59,13.90
2013,05,01,17,00,13.80
2013,05,01,17,01,13.90
2013,05,01,17,02,13.90
2013,05,01,17,03,13.80
2013,05,01,17,04,13.80
2013,05,01,17,05,13.70
2013,05,01,17,06,13.70
2013,05,01,17,07,13.70
2013,05,01,17,08,13.70
2013,05,01,17,09,13.70
2013,05,01,17,10,13.70
2013,05,01,17,11,13.60
2013,05,01,17,12,13.70
2013,05,01,17,13,13.70
2013,05,01,17,14,13.60
2013,05,01,17,15,13.60
2013,05,01,17,16,13.70
2013,05,01,17,17,13.70
2013,05,01,17,18,13.70
2013,05,01,17,19,13.70
2013,05,01,17,20,13.80
2013,05,01,17,21,13.80
2013,05,01,17,22,13.70
2013,05,01,17,23,13.70
2013,05,01,17,24,13.80
2013,05,01,17,25,13.90
2013,05,01,17,26,13.90
2013,05,01,17,27,13.90
2013,05,01,17,28,13.80
2013,05,01,17,29,13.70
2013,05,01,17,30,13.70
2013,05,01,17,31,13.70
2013,05,01,17,32,13.70
2013,05,01,17,33,13.70
2013,05,01,17,34,13.70
2013,05,01,17,35,13.70
2013,05,01,17,36,13.70
2013,05,01,17,37,13.70
2013,05,01,17,38,13.80
2013,05,01,17,39,13.80
2013,05,01,17,40,13.80
2013,05,01,17,41,13.80
2013,05,01,17,42,13.80
2013,05,01,17,43,13.70